Regional Weather Roundup
Issued by NWS

Home | Current Version | Previous Version | Graphics & Text | Print | Product List | Glossary On
Versions: 1 2 3 4 5 6 7 8 9 10 11 12 13 14 15 16 17 18 19 20 21 22 23 24 25 26 27 28 29 30 31 32 33 34 35 36 37 38 39 40 41 42 43 44 45 46 47 48 49 50
000
ASUS43 KLMK 180710
RWRKY
KENTUCKY REGIONAL WEATHER ROUNDUP
NATIONAL WEATHER SERVICE LOUISVILLE KY
300 AM EDT THU SEP 18 2014

NOTE "FAIR" INDICATES FEW OR NO CLOUDS BELOW 12,000 FEET
WITH NO SIGNIFICANT WEATHER AND/OR OBSTRUCTIONS TO VISIBILITY.

KYZ001>023-026-027-061>063-070>075-180800-
WESTERN AND SOUTH CENTRAL KENTUCKY

CITY           SKY/WX    TMP DP  RH WIND       PRES   REMARKS
PADUCAH        MOCLDY    61  56  83 NE3       29.97S
HENDERSON      CLOUDY    63  54  72 E7        29.99S
OWENSBORO      MOCLDY    64  55  72 E7        30.00S
HOPKINSVILLE   PTCLDY    60  60 100 CALM      29.98S
BOWLING GREEN  MOCLDY    60  56  86 CALM      29.99F
GLASGOW        PTCLDY    56  56 100 CALM      30.00S
$$

KYZ024-025-028>034-038-045-046-053-180800-
NORTH CENTRAL KENTUCKY

CITY           SKY/WX    TMP DP  RH WIND       PRES   REMARKS
LOUISVILLE/SDF MOCLDY    59  54  83 N3        30.01F
LOUISVILLE/LOU MOCLDY    59  53  80 CALM      30.02S
FORT KNOX      CLOUDY    59  53  82 NE5       30.00S
$$

KYZ035>037-039>044-047>052-055>060-089>105-180800-
NORTHEAST KENTUCKY

CITY           SKY/WX    TMP DP  RH WIND       PRES   REMARKS
LEXINGTON      CLOUDY    58  52  80 NE6       30.02S
COVINGTON      CLEAR     54  50  86 CALM      30.03R
FRANKFORT      CLOUDY    57  52  83 CALM      30.02R
$$

KYZ054-064>069-076>088-106>120-180800-
SOUTHEAST KENTUCKY

CITY           SKY/WX    TMP DP  RH WIND       PRES   REMARKS
JACKSON        CLEAR     57  54  89 N3        30.01S
LONDON         CLOUDY    58  54  86 CALM      30.02R
SOMERSET       NOT AVBL
MIDDLESBORO    MOCLDY    55  54  97 CALM      30.01S
MONTICELLO     CLOUDY    59  58  96 CALM      30.02S
$$



USA.gov is the U.S. government's official web portal to all federal, state and local government web resources and services.